Location: T�bingen+AIT
(48.5342°N, 9.0700°E)
Time: 20:28:38
(UTC+02:00)

BREEZE-M DEB (TANK) - Pass Details

Date: 14 September 2017
Orbit: 326 x 16457 km, 49.4° (Epoch: 19 September)

Event Time Altitude Azimuth Distance (km) Brightness Sun altitude
Rises 21:25:21 0° 272° (W) 2,611 7.0 -17.8°
Reaches altitude 10° 21:26:41 10° 273° (W) 2,001 6.2 -18.0°
Maximum altitude 21:30:43 84° 2° (N) 1,131 3.8 -18.6°
Enters shadow 21:42:03 17° 91° (E) 5,513 6.8 -20.2°
